Hutchinson, KS

7:12 AM CDT on October 23, 2017 (GMT -0500)
Hutchinson Municipal

Weather History for KHUT - December, 2011

Change the Weather History Date:

Friday, December 30, 2011

  Actual Average Record
Temperature  
Mean Temperature 45 °F -  
Max Temperature 57 °F 42 °F 72 °F (2004)
Min Temperature 33 °F 17 °F 3 °F (2001)
Degree Days  
Heating Degree Days 20    
Moisture  
Dew Point 28 °F    
Average Humidity 60    
Maximum Humidity 83    
Minimum Humidity 24    
Precipitation  
Precipitation 0.00 in - - ()
Sea Level Pressure  
Sea Level Pressure 29.92 in    
Wind  
Wind Speed 9 mph (West)    
Max Wind Speed 15 mph    
Max Gust Speed 22 mph    
Visibility 10 miles    
Events      
Averages and records for this station are not official NWS values.
T = Trace of Precipitation, MM = Missing Value Source: NWS Daily Summary

Daily Weather History Graph

Daily Weather History Graph

Search for Another Location

Airport or City:

Trip Planner

Search our weather history database for the weather conditions in past years. The results will help you decide how hot, cold, wet, or windy it might be!

Date:

Astronomy

Dec. 30, 2011 Rise Set
Actual Time 7:47 AM CST 5:20 PM CST
Civil Twilight 7:17 AM CST 5:50 PM CST
Nautical Twilight 6:44 AM CST 6:23 PM CST
Astronomical Twilight 6:12 AM CST 6:55 PM CST
Moon 11:13 AM CST (12/30) 11:50 PM CST (12/30)
Length of Visible Light 10h 32m
Length of Day
9h 33m
Waxing Crescent, 36% of the Moon is Illuminated
Dec 30
Waxing Crescent
Jan 1
First Quarter
Jan 9
Full
Jan 16
Last Quarter
Jan 23
New

Hourly Weather History & Observations

Time (CST) Temp. Windchill Dew Point Humidity Pressure Visibility Wind Dir Wind Speed Gust Speed Precip Events Conditions
12:52 AM 46.0 °F 41.0 °F 37.0 °F 71% 29.80 in 10.0 mi NW 10.4 mph 21.9 mph N/A   Clear
1:52 AM 39.9 °F 33.4 °F 35.1 °F 83% 29.82 in 10.0 mi WNW 10.4 mph - N/A   Clear
2:52 AM 39.9 °F 33.4 °F 33.1 °F 77% 29.83 in 10.0 mi WNW 10.4 mph - N/A   Clear
3:52 AM 37.9 °F 31.5 °F 30.9 °F 76% 29.88 in 10.0 mi West 9.2 mph - N/A   Clear
4:52 AM 37.9 °F 31.5 °F 30.0 °F 73% 29.88 in 10.0 mi WNW 9.2 mph - N/A   Clear
5:52 AM 35.6 °F 28.6 °F 28.4 °F 75% 29.92 in 10.0 mi WNW 9.2 mph - N/A   Clear
6:52 AM 35.1 °F 28.6 °F 28.0 °F 76% 29.91 in 10.0 mi WNW 8.1 mph - N/A   Clear
7:52 AM 33.1 °F 26.1 °F 27.0 °F 78% 29.94 in 10.0 mi NW 8.1 mph - N/A   Clear
8:52 AM 37.0 °F 29.8 °F 28.0 °F 70% 29.96 in 10.0 mi NW 10.4 mph - N/A   Clear
9:52 AM 44.1 °F 37.7 °F 28.0 °F 53% 29.98 in 10.0 mi NW 12.7 mph - N/A   Clear
10:52 AM 50.0 °F - 27.0 °F 41% 29.98 in 10.0 mi WNW 12.7 mph - N/A   Clear
11:52 AM 53.6 °F - 26.6 °F 35% 29.99 in 10.0 mi WNW 12.7 mph - N/A   Clear
12:52 PM 55.9 °F - 26.1 °F 32% 29.95 in 10.0 mi WNW 15.0 mph - N/A   Clear
1:52 PM 57.0 °F - 21.9 °F 26% 29.94 in 10.0 mi WNW 10.4 mph - N/A   Clear
2:52 PM 57.9 °F - 21.0 °F 24% 29.95 in 10.0 mi West 15.0 mph - N/A   Clear
3:52 PM 55.0 °F - 28.0 °F 35% 29.96 in 10.0 mi West 11.5 mph - N/A   Clear
4:52 PM 51.8 °F - 28.4 °F 41% 29.96 in 10.0 mi West 9.2 mph - N/A   Clear
5:52 PM 48.9 °F - 30.0 °F 48% 29.96 in 10.0 mi West 8.1 mph - N/A   Clear
6:52 PM 41.0 °F - 28.9 °F 62% 29.96 in 10.0 mi Calm Calm - N/A   Clear
7:52 PM 35.1 °F - 27.0 °F 72% 29.97 in 10.0 mi Calm Calm - N/A   Clear
8:52 PM 34.0 °F 28.8 °F 28.0 °F 79% 29.95 in 10.0 mi SE 5.8 mph - N/A   Clear
9:52 PM 36.0 °F 33.3 °F 28.0 °F 73% 29.91 in 10.0 mi SE 3.5 mph - N/A   Clear
10:52 PM 36.0 °F 32.1 °F 28.0 °F 73% 29.90 in 10.0 mi SE 4.6 mph - N/A   Clear
11:52 PM 36.0 °F 31.1 °F 26.1 °F 67% 29.88 in 10.0 mi SSE 5.8 mph - N/A   Clear